Alma, GA

4:15 PM EST on February 11, 2016 (GMT -0500)
Bacon County

Weather History for KAMG - July, 2013

Change the Weather History Date:

Thursday, July 4, 2013

  Actual Average Record
Temperature  
Mean Temperature 79 °F 82 °F  
Max Temperature 87 °F 92 °F 99 °F (1997)
Min Temperature 71 °F 71 °F 60 °F (1952)
Degree Days  
Heating Degree Days 0 0  
Month to date heating degree days 0 0  
Since 1 June heating degree days 0 0  
Since 1 July heating degree days 0 0  
Cooling Degree Days 14 17  
Month to date cooling degree days 57 67  
Year to date cooling degree days 827 940  
Since 1 June cooling degree days 516 510  
Growing Degree Days 28 (Base 50)    
Moisture  
Dew Point 73 °F    
Average Humidity 83    
Maximum Humidity 100    
Minimum Humidity 65    
Precipitation  
Precipitation 1.02 in 0.17 in 2.00 in (1962)
Month to date precipitation 1.89 0.67  
Year to date precipitation 28.33 24.14  
Snow  
Snow 0.00 in 0.00 in 0.00 in ()
Month to date snowfall 0.0 0.0  
Since 1 June snowfall 0.0 0.0  
Since 1 July snowfall 0.0 0.0  
Snow Depth 0.00 in    
Sea Level Pressure  
Sea Level Pressure 30.14 in    
Wind  
Wind Speed 6 mph (SE)    
Max Wind Speed 21 mph    
Max Gust Speed 29 mph    
Visibility 7 miles    
Events Fog , Rain , Thunderstorm    
T = Trace of Precipitation, MM = Missing Value Source: NWS Daily Summary

Daily Weather History Graph

Daily Weather History Graph

Search for Another Location

Airport or City:

Trip Planner

Search our weather history database for the weather conditions in past years. The results will help you decide how hot, cold, wet, or windy it might be!

Date:

Astronomy

Jul. 04, 2013 Rise Set
Actual Time 6:30 AM EDT 8:38 PM EDT
Civil Twilight 6:02 AM EDT 9:06 PM EDT
Nautical Twilight 5:28 AM EDT 9:40 PM EDT
Astronomical Twilight 4:51 AM EDT 10:17 PM EDT
Moon 3:41 AM EDT (7/4) 5:46 PM EDT (7/4)
Length of Visible Light 15h 04m
Length of Day
14h 08m
Waning Crescent, 11% of the Moon is Illuminated
Jul 4
Waning Crescent
Jul 8
New
Jul 15
First Quarter
Jul 22
Full
Jul 29
Last Quarter

Hourly Weather History & Observations

Time (EDT) Temp. Heat Index Dew Point Humidity Pressure Visibility Wind Dir Wind Speed Gust Speed Precip Events Conditions
12:45 AM 73.4 °F - 71.6 °F 94% 30.15 in 10.0 mi East 3.5 mph - N/A   Scattered Clouds
12:53 AM 75.0 °F - 73.0 °F 94% 30.14 in 10.0 mi Calm Calm - N/A   Scattered Clouds
1:00 AM 75.2 °F - 73.4 °F 94% 30.14 in 10.0 mi Calm Calm - N/A   Mostly Cloudy
1:07 AM 75.2 °F - 73.4 °F 94% 30.14 in 9.0 mi East 3.5 mph - N/A   Mostly Cloudy
1:17 AM 75.2 °F - 73.4 °F 94% 30.15 in 9.0 mi ESE 3.5 mph - N/A   Overcast
1:30 AM 75.2 °F - 73.4 °F 94% 30.15 in 9.0 mi ESE 4.6 mph - N/A   Overcast
1:53 AM 75.9 °F - 73.9 °F 94% 30.14 in 9.0 mi ESE 4.6 mph - N/A   Overcast
2:53 AM 75.9 °F - 73.9 °F 94% 30.11 in 8.0 mi ESE 4.6 mph - N/A   Mostly Cloudy
3:21 AM 75.2 °F - 73.4 °F 94% 30.11 in 9.0 mi ESE 5.8 mph - N/A   Mostly Cloudy
3:28 AM 75.2 °F - 73.4 °F 94% 30.11 in 9.0 mi SE 5.8 mph - N/A   Mostly Cloudy
3:53 AM 75.0 °F - 73.0 °F 94% 30.11 in 9.0 mi ESE 5.8 mph - N/A   Mostly Cloudy
4:05 AM 75.2 °F - 73.4 °F 94% 30.12 in 9.0 mi ESE 5.8 mph - N/A   Partly Cloudy
4:53 AM 75.0 °F - 73.0 °F 94% 30.12 in 9.0 mi ESE 4.6 mph - N/A   Clear
5:53 AM 73.9 °F - 72.0 °F 93% 30.12 in 9.0 mi ESE 5.8 mph - N/A   Clear
6:30 AM 73.4 °F - 71.6 °F 94% 30.13 in 7.0 mi ESE 4.6 mph - N/A   Partly Cloudy
6:53 AM 73.9 °F - 72.0 °F 93% 30.12 in 7.0 mi ESE 5.8 mph - N/A   Clear
7:53 AM 75.9 °F - 73.0 °F 91% 30.13 in 10.0 mi ESE 9.2 mph - N/A   Partly Cloudy
8:53 AM 79.0 °F - 73.9 °F 84% 30.14 in 10.0 mi ESE 5.8 mph - N/A   Clear
9:53 AM 82.0 °F 87.4 °F 73.0 °F 74% 30.14 in 10.0 mi SE 8.1 mph 18.4 mph N/A   Partly Cloudy
10:20 AM 82.4 °F 88.2 °F 73.4 °F 74% 30.15 in 10.0 mi SE 15.0 mph 21.9 mph N/A   Mostly Cloudy
10:45 AM 84.2 °F 90.9 °F 73.4 °F 70% 30.15 in 10.0 mi SSE 11.5 mph 17.3 mph N/A   Scattered Clouds
10:53 AM 84.9 °F 92.1 °F 73.9 °F 69% 30.14 in 10.0 mi SE 9.2 mph - N/A   Scattered Clouds
11:53 AM 84.9 °F 90.7 °F 72.0 °F 65% 30.14 in 10.0 mi SE 12.7 mph 21.9 mph N/A   Mostly Cloudy
12:53 PM 84.9 °F 90.1 °F 71.1 °F 63% 30.13 in 10.0 mi SSE 11.5 mph 20.7 mph N/A   Mostly Cloudy
1:53 PM 84.0 °F 89.0 °F 71.1 °F 65% 30.12 in 6.0 mi SE 16.1 mph 23.0 mph N/A   Haze
2:37 PM 80.6 °F 85.4 °F 73.4 °F 79% 30.12 in 1.8 mi Variable 5.8 mph 18.4 mph 0.08 in Rain Heavy Rain
2:44 PM 80.6 °F 86.2 °F 75.2 °F 84% 30.11 in 3.0 mi ESE 8.1 mph - 0.09 in Rain Rain
2:53 PM 80.1 °F 85.1 °F 75.0 °F 85% 30.09 in 10.0 mi South 3.5 mph - 0.09 in Thunderstorm Mostly Cloudy
3:19 PM 78.8 °F - 73.4 °F 83% 30.13 in 1.2 mi South 20.7 mph 28.8 mph 0.16 in Rain , Thunderstorm Heavy Rain
3:24 PM 75.2 °F - 73.4 °F 94% 30.13 in 0.8 mi South 9.2 mph 28.8 mph 0.22 in Rain , Thunderstorm Heavy Thunderstorms and Rain
3:30 PM 75.2 °F - 73.4 °F 94% 30.12 in 2.5 mi South 12.7 mph 19.6 mph 0.23 in Rain , Thunderstorm Light Thunderstorms and Rain
3:37 PM 75.2 °F - 73.4 °F 94% 30.12 in 6.0 mi South 6.9 mph 19.6 mph 0.23 in Rain , Thunderstorm Light Thunderstorms and Rain
3:53 PM 75.9 °F - 73.0 °F 91% 30.12 in 10.0 mi SSW 5.8 mph - 0.23 in Thunderstorm Mostly Cloudy
4:05 PM 77.0 °F - 73.4 °F 89% 30.12 in 10.0 mi South 4.6 mph - N/A   Scattered Clouds
4:27 PM 78.8 °F - 73.4 °F 83% 30.13 in 10.0 mi South 6.9 mph - N/A Thunderstorm Scattered Clouds
4:43 PM 75.2 °F - 71.6 °F 89% 30.13 in 1.8 mi South 12.7 mph 21.9 mph 0.08 in Rain , Thunderstorm Heavy Thunderstorms and Rain
4:53 PM 75.0 °F - 73.0 °F 94% 30.12 in 3.0 mi SSW 4.6 mph - 0.10 in Rain , Thunderstorm Light Thunderstorms and Rain
5:30 PM 75.2 °F - 71.6 °F 89% 30.13 in 10.0 mi Calm Calm - 0.00 in Thunderstorm Scattered Clouds
5:46 PM 75.2 °F - 73.4 °F 94% 30.13 in 1.8 mi Variable 3.5 mph - 0.03 in Rain , Thunderstorm Heavy Thunderstorms and Rain
5:53 PM 75.9 °F - 73.0 °F 91% 30.13 in 2.5 mi Variable 3.5 mph - 0.03 in Rain , Thunderstorm Light Thunderstorms and Rain
5:56 PM 75.2 °F - 73.4 °F 94% 30.14 in 6.0 mi ESE 5.8 mph - 0.00 in Rain , Thunderstorm Light Thunderstorms and Rain
6:16 PM 75.2 °F - 73.4 °F 94% 30.17 in 1.0 mi South 11.5 mph - 0.19 in Rain , Thunderstorm Light Rain
6:19 PM 75.2 °F - 73.4 °F 94% 30.17 in 0.5 mi SW 16.1 mph 23.0 mph 0.37 in Fog , Rain , Thunderstorm Heavy Rain
6:21 PM 75.2 °F - 73.4 °F 94% 30.16 in 0.2 mi SSW 13.8 mph 23.0 mph 0.49 in Fog , Rain , Thunderstorm Heavy Rain
6:26 PM 73.4 °F - 71.6 °F 94% 30.16 in 0.5 mi South 9.2 mph 23.0 mph 0.51 in Fog , Rain , Thunderstorm Heavy Thunderstorms and Rain
6:30 PM 73.4 °F - 71.6 °F 94% 30.16 in 1.2 mi SSE 10.4 mph - 0.52 in Rain , Thunderstorm Light Thunderstorms and Rain
6:33 PM 73.4 °F - 71.6 °F 94% 30.16 in 3.0 mi SSE 11.5 mph - 0.53 in Rain , Thunderstorm Light Thunderstorms and Rain
6:53 PM 73.0 °F - 70.0 °F 90% 30.14 in 5.0 mi Calm Calm - 0.55 in Rain Light Rain
7:01 PM 73.4 °F - 69.8 °F 88% 30.14 in 10.0 mi Calm Calm - 0.00 in Thunderstorm Mostly Cloudy
7:39 PM 71.6 °F - 69.8 °F 94% 30.15 in 6.0 mi Calm Calm - 0.01 in Rain Light Rain
7:53 PM 72.0 °F - 71.1 °F 97% 30.14 in 8.0 mi Calm Calm - 0.02 in Rain Light Rain
8:53 PM 72.0 °F - 70.0 °F 93% 30.16 in 10.0 mi ESE 3.5 mph - 0.00 in   Clear
9:36 PM 71.6 °F - 71.6 °F 100% 30.16 in 9.0 mi ESE 3.5 mph - N/A   Scattered Clouds
9:45 PM 71.6 °F - 71.6 °F 100% 30.17 in 4.0 mi ESE 4.6 mph - N/A   Mostly Cloudy
9:53 PM 72.0 °F - 72.0 °F 100% 30.16 in 3.0 mi East 3.5 mph - N/A   Mostly Cloudy
10:23 PM 73.4 °F - 71.6 °F 94% 30.19 in 10.0 mi ESE 5.8 mph - N/A   Mostly Cloudy
10:53 PM 72.0 °F - 71.1 °F 97% 30.16 in 10.0 mi SE 4.6 mph - N/A   Partly Cloudy
11:53 PM 72.0 °F - 71.1 °F 97% 30.16 in 10.0 mi Calm Calm - N/A   Clear